Regional Weather Roundup
Issued by NWS Cleveland, OH

Home | Current Version | Previous Version | Text Only | Print | Product List | Glossary Off
Versions: 1 2 3 4 5 6 7 8 9 10 11 12 13 14 15 16 17 18 19 20 21 22 23 24 25 26 27 28 29 30 31 32 33 34 35 36 37 38 39 40 41 42 43 44 45 46 47 48 49 50

181
ASUS41 KCLE 210400
RWRCLE
OHIO REGIONAL WEATHER ROUNDUP
NATIONAL WEATHER SERVICE WILMINGTON, OH
1200 AM EDT THU SEP 21 2017

NOTE: "FAIR" INDICATES FEW OR NO CLOUDS BELOW 12,000 FEET WITH NO
SIGNIFICANT WEATHER AND/OR OBSTRUCTIONS TO VISIBILITY.

OHZ001>008-015>018-024>027-034-035-043-044-210500-
   NORTHWEST OHIO

CITY           SKY/WX    TMP DP  RH WIND       PRES   REMARKS
DEFIANCE       FAIR      72  66  81 CALM      30.01R
FINDLAY        FAIR      70  64  81 SE5       30.01R
TOLEDO EXPRESS FAIR      68  68 100 CALM      30.01R
TOLEDO EXEC    FAIR      69  65  86 E5        30.01S
LIMA           FAIR      70  67  90 S7        30.02R
$$

OHZ009>014-019>023-028>033-038-089-210500-
   NORTHEAST OHIO

CITY           SKY/WX    TMP DP  RH WIND       PRES   REMARKS
CLE-HOPKINS    FAIR      72  62  71 CALM      30.04S
CLE-LAKEFRONT  FAIR      73  63  70 SE6       30.01F
CUY CO. ARPT   NOT AVBL
LORAIN-ELYRIA  FAIR      65  58  78 S3        30.03F
ASHTABULA      FAIR      62  62 100 CALM      30.05F FOG
AKRON-CANTON   FAIR      72  64  76 SE3       30.05S
WOOSTER        NOT AVBL
MANSFIELD      FAIR      67  65  93 S6        30.05S
YOUNGSTOWN     FAIR      65  63  93 N3        30.05S
$$

OHZ042-051>053-060>062-070>072-077>081-210500-
  SOUTHWEST OHIO

CITY           SKY/WX    TMP DP  RH WIND       PRES   REMARKS
CINC-COVINGTON FAIR      72  69  90 S5        30.03S
CINC-LUNKEN    FOG       67  67 100 CALM      30.03S VSB 3/4
HAMILTON       FAIR      66  66 100 CALM      30.03S FOG
DAYTON         FAIR      71  66  84 S6        30.03F
WRIGHT-PAT AFB FAIR      69  69 100 CALM      30.02S
DAYTON GENERAL FAIR      70  65  84 S5        30.02F
WILMINGTON     FAIR      66  66 100 CALM      30.04S
$$

OHZ036-037-039>041-045>050-054>059-063>069-073>076-082>088-210500-
  CENTRAL AND SOUTHEAST OHIO

CITY           SKY/WX    TMP DP  RH WIND       PRES   REMARKS
COLUMBUS       FAIR      70  68  93 SE5       30.03S
OSU AIRPORT    FAIR      69  69 100 CALM      30.03S
BOLTON FIELD   FAIR      65  65  99 CALM      30.04S
RICKENBACK AFB NOT AVBL
NEWARK         FOG       65  64  97 CALM      30.04S VSB 1/2
MARION         FAIR      67  64  90 SE3       30.03S
LANCASTER      MOCLDY    66  66 100 CALM      30.04F
ZANESVILLE     FAIR      67  65  93 CALM      30.04S FOG
NEW PHILLY     FAIR      65  65 100 CALM      30.05S FOG
$$




USA.gov is the U.S. government's official web portal to all federal, state and local government web resources and services.